TimeCST,TemperatureF,Dew PointF,Humidity,Sea Level PressureIn,VisibilityMPH,Wind Direction,Wind SpeedMPH,Gust SpeedMPH,PrecipitationIn,Events,Conditions,WindDirDegrees,DateUTC
12:52 AM,1.0,-7.1,69,30.37,10.0,WNW,16.1,24.2,N/A,,Scattered Clouds,300,2013-02-01 06:52:00
1:52 AM,1.0,-7.1,69,30.38,10.0,WNW,17.3,24.2,N/A,,Clear,290,2013-02-01 07:52:00
2:52 AM,1.0,-7.1,69,30.39,10.0,WNW,17.3,21.9,N/A,,Clear,290,2013-02-01 08:52:00
3:52 AM,-9999,-9999,N/A,30.35,-9999.0,North,-9999.0,-,N/A,,Unknown,0,2013-02-01 09:52:00
4:52 AM,-0.0,-8.0,69,30.41,10.0,WNW,12.7,-,N/A,,Unknown,290,2013-02-01 10:52:00
5:52 AM,-0.0,-8.0,69,30.42,10.0,WNW,12.7,-,N/A,,Partly Cloudy,290,2013-02-01 11:52:00
6:37 AM,-0.4,-7.6,72,30.38,10.0,WNW,11.5,-,N/A,,Mostly Cloudy,290,2013-02-01 12:37:00
6:48 AM,-0.4,-9.4,66,30.38,10.0,WNW,13.8,-,N/A,,Scattered Clouds,300,2013-02-01 12:48:00
6:52 AM,-0.9,-9.0,69,30.43,10.0,NW,13.8,-,N/A,,Partly Cloudy,310,2013-02-01 12:52:00
7:52 AM,-0.9,-9.0,69,30.44,10.0,WNW,11.5,-,N/A,,Clear,300,2013-02-01 13:52:00
8:52 AM,-0.0,-9.0,66,30.45,10.0,WNW,10.4,-,N/A,,Scattered Clouds,290,2013-02-01 14:52:00
9:52 AM,1.0,-7.1,69,30.45,10.0,West,8.1,-,N/A,,Clear,280,2013-02-01 15:52:00
10:52 AM,3.0,-6.0,66,30.45,10.0,WSW,9.2,-,N/A,,Clear,250,2013-02-01 16:52:00
11:52 AM,3.9,-5.1,66,30.44,10.0,SSW,8.1,-,N/A,,Clear,210,2013-02-01 17:52:00
12:52 PM,6.1,-5.1,60,30.40,10.0,WSW,6.9,-,N/A,,Clear,250,2013-02-01 18:52:00
1:52 PM,7.0,-2.9,64,30.38,10.0,SW,8.1,-,N/A,,Clear,220,2013-02-01 19:52:00
2:52 PM,8.1,-2.0,64,30.36,10.0,West,8.1,-,N/A,,Mostly Cloudy,260,2013-02-01 20:52:00
3:52 PM,9.0,-0.9,64,30.30,10.0,WSW,9.2,-,N/A,,Overcast,240,2013-02-01 21:52:00
4:52 PM,10.9,1.0,64,30.32,10.0,SW,9.2,-,N/A,,Overcast,220,2013-02-01 22:52:00
5:52 PM,10.9,1.0,64,30.29,10.0,SSW,6.9,-,N/A,,Overcast,210,2013-02-01 23:52:00
6:52 PM,12.9,3.9,67,30.27,10.0,South,8.1,-,N/A,,Overcast,190,2013-02-02 00:52:00
7:52 PM,15.1,6.1,68,30.23,10.0,SSW,5.8,-,N/A,,Overcast,200,2013-02-02 01:52:00
8:52 PM,17.1,8.1,68,30.20,10.0,South,4.6,-,N/A,,Overcast,190,2013-02-02 02:52:00
9:52 PM,19.0,9.0,65,30.19,10.0,South,9.2,-,N/A,,Overcast,190,2013-02-02 03:52:00
10:52 PM,19.9,12.0,71,30.18,10.0,SSW,8.1,-,N/A,,Overcast,210,2013-02-02 04:52:00
11:52 PM,21.0,15.1,78,30.15,10.0,SW,9.2,-,0.00,,Overcast,220,2013-02-02 05:52:00